Tracking 19484 objects as of 20-Jan-2019
HD Live streaming from Space Station
objects crossing your sky now

HIMAWARI 1 (GMS 1)

Track HIMAWARI 1 (GMS 1) now!
HIMAWARI 1 (GMS 1) is classified as:


NORAD ID: 10143
Int'l Code: 1977-065A
Perigee: 36,028.5 km
Apogee: 36,135.3 km
Inclination: 12.5 °
Period: 1,450.8 minutes
Semi major axis: 42452 km
RCS: 4.3304 m2 (large)
Launch date: July 14, 1977
Source: Japan (JPN)
Launch site: AIR FORCE EASTERN TEST RANGE (AFETR)
aabbcc
Your satellite tracking list
Your tracking list is empty




NASA's NSSDC Master Catalog

Two Line Element Set (TLE):
1 10143U 77065A   19019.12990003 -.00000196  00000-0  00000+0 0  9994
2 10143  12.5115 320.5871 0012579 172.2954  24.5049  0.99252725 94352
Source of the keplerian elements: AFSPC